St. Joseph, KS

5:34 PM CST on November 13, 2019 (GMT -0600)
Rosecrans Memorial

Weather History for KSTJ - September, 2019

Change the Weather History Date:

Saturday, September 21, 2019

  Actual Average Record
Temperature  
Mean Temperature 75 °F 64 °F  
Max Temperature 78 °F 77 °F 98 °F (1956)
Min Temperature 72 °F 52 °F 31 °F (1999)
Degree Days  
Heating Degree Days 0 3  
Month to date heating degree days 0 32  
Since 1 July heating degree days 0 37  
Cooling Degree Days 10 3  
Month to date cooling degree days 247 100  
Year to date cooling degree days 1391 1177  
Growing Degree Days 24 (Base 50)    
Moisture  
Dew Point 70 °F    
Average Humidity 85    
Maximum Humidity 93    
Minimum Humidity 76    
Precipitation  
Precipitation 0.47 in 0.11 in 2.22 in (1965)
Month to date precipitation 1.95 2.61  
Year to date precipitation 31.22 28.91  
Sea Level Pressure  
Sea Level Pressure 29.92 in    
Wind  
Wind Speed 13 mph (South)    
Max Wind Speed 23 mph    
Max Gust Speed 36 mph    
Visibility 8 miles    
Events Rain , Thunderstorm    
T = Trace of Precipitation, MM = Missing Value Source: NWS Daily Summary

Daily Weather History Graph

Daily Weather History Graph

Search for Another Location

Airport or City:

Astronomy

Sep. 21, 2019 Rise Set
Actual Time 7:06 AM CDT 7:18 PM CDT
Civil Twilight 6:39 AM CDT 7:45 PM CDT
Nautical Twilight 6:07 AM CDT 8:17 PM CDT
Astronomical Twilight 5:35 AM CDT 8:49 PM CDT
Moon 11:58 PM CDT (9/21) 2:12 PM CDT (9/21)
Length of Visible Light 13h 06m
Length of Day
12h 12m
Waning Gibbous, 54% of the Moon is Illuminated
Sep 21
Waning Gibbous
Sep 21
Last Quarter
Sep 28
New
Oct 5
First Quarter
Oct 13
Full

Hourly Weather History & Observations

Time (CDT) Temp. Dew Point Humidity Pressure Visibility Wind Dir Wind Speed Gust Speed Precip Events Conditions
12:00 AM 72.0 °F 69.1 °F 91% 29.95 in 8.0 mi SSE 11.5 mph - N/A   Overcast
12:35 AM 72.0 °F 69.1 °F 91% 29.95 in 10.0 mi SSE 13.8 mph 21.9 mph 0.01 in   Overcast
12:44 AM 72.0 °F 69.1 °F 91% 29.95 in 10.0 mi South 15.0 mph 21.9 mph 0.01 in   Overcast
12:53 AM 72.0 °F 69.1 °F 91% 29.92 in 10.0 mi South 13.8 mph - 0.01 in   Overcast
1:53 AM 72.0 °F 69.1 °F 91% 29.93 in 10.0 mi South 10.4 mph - N/A   Overcast
2:53 AM 73.0 °F 69.1 °F 87% 29.92 in 10.0 mi South 13.8 mph - 0.00 in   Overcast
3:09 AM 73.0 °F 69.1 °F 87% 29.94 in 10.0 mi South 10.4 mph 21.9 mph N/A   Overcast
3:26 AM 73.0 °F 69.1 °F 87% 29.94 in 10.0 mi South 12.7 mph - N/A   Overcast
3:53 AM 73.0 °F 69.1 °F 87% 29.91 in 10.0 mi South 12.7 mph - N/A   Overcast
4:00 AM 73.0 °F 69.1 °F 87% 29.94 in 10.0 mi South 12.7 mph - N/A   Overcast
4:53 AM 73.9 °F 69.1 °F 85% 29.91 in 10.0 mi South 10.4 mph - N/A   Overcast
5:39 AM 73.0 °F 69.1 °F 87% 29.93 in 5.0 mi South 13.8 mph 25.3 mph 0.05 in Rain , Thunderstorm Light Rain
5:53 AM 73.0 °F 69.1 °F 87% 29.91 in 4.0 mi South 12.7 mph - 0.14 in Rain , Thunderstorm Light Thunderstorms and Rain
6:27 AM 73.0 °F 70.0 °F 90% 29.93 in 9.0 mi South 10.4 mph - 0.08 in Rain Light Rain
6:53 AM 73.0 °F 70.0 °F 90% 29.92 in 6.0 mi South 9.2 mph 20.7 mph 0.08 in Rain Light Rain
7:53 AM 73.0 °F 70.0 °F 90% 29.92 in 10.0 mi South 11.5 mph 20.7 mph 0.03 in   Overcast
8:17 AM 73.9 °F 70.0 °F 87% 29.94 in 10.0 mi South 12.7 mph - N/A   Mostly Cloudy
8:53 AM 73.9 °F 70.0 °F 87% 29.92 in 10.0 mi South 13.8 mph 21.9 mph N/A   Mostly Cloudy
9:12 AM 73.9 °F 71.1 °F 91% 29.94 in 10.0 mi South 12.7 mph - 0.00 in Rain Light Rain
9:53 AM 73.9 °F 71.1 °F 91% 29.92 in 5.0 mi South 11.5 mph - 0.05 in Rain Light Rain
10:03 AM 73.9 °F 71.1 °F 91% 29.93 in 8.0 mi South 15.0 mph 21.9 mph 0.00 in Rain , Thunderstorm Light Rain
10:16 AM 73.0 °F 70.0 °F 90% 29.94 in 4.0 mi South 21.9 mph 35.7 mph 0.01 in Rain , Thunderstorm Light Thunderstorms and Rain
10:26 AM 73.0 °F 70.0 °F 90% 29.94 in 2.5 mi South 17.3 mph 25.3 mph 0.05 in Rain , Thunderstorm Thunderstorms and Rain
10:32 AM 73.0 °F 70.0 °F 90% 29.93 in 4.0 mi South 15.0 mph 25.3 mph 0.06 in Rain , Thunderstorm Light Rain
10:45 AM 73.0 °F 71.1 °F 93% 29.94 in 2.0 mi South 12.7 mph - 0.11 in Rain Light Rain
10:48 AM 73.4 °F 71.6 °F 94% 29.94 in 1.5 mi South 12.7 mph - 0.15 in Rain Heavy Rain
10:53 AM 73.0 °F 71.1 °F 93% 29.92 in 1.5 mi South 13.8 mph - 0.16 in Rain Light Rain
10:58 AM 73.0 °F 71.1 °F 93% 29.94 in 4.0 mi South 11.5 mph 21.9 mph 0.00 in Rain Light Rain
11:11 AM 73.9 °F 71.1 °F 91% 29.94 in 10.0 mi South 10.4 mph - 0.01 in Rain Light Rain
11:53 AM 75.0 °F 72.0 °F 90% 29.90 in 10.0 mi South 13.8 mph 21.9 mph 0.01 in   Overcast
12:49 PM 75.2 °F 71.6 °F 89% 29.91 in 10.0 mi South 18.4 mph 29.9 mph N/A   Overcast
12:53 PM 75.9 °F 72.0 °F 87% 29.88 in 10.0 mi South 17.3 mph 29.9 mph N/A   Overcast
1:53 PM 77.0 °F 72.0 °F 84% 29.88 in 10.0 mi South 17.3 mph 25.3 mph N/A   Overcast
2:53 PM 77.0 °F 71.1 °F 82% 29.88 in 10.0 mi South 18.4 mph 29.9 mph N/A   Overcast
3:53 PM 77.0 °F 70.0 °F 79% 29.89 in 10.0 mi South 15.0 mph 27.6 mph 0.00 in   Overcast
4:33 PM 77.0 °F 69.1 °F 76% 29.91 in 10.0 mi South 16.1 mph 26.5 mph N/A   Overcast
4:53 PM 77.0 °F 69.1 °F 76% 29.89 in 10.0 mi South 15.0 mph 21.9 mph N/A   Overcast
5:53 PM 77.0 °F 69.1 °F 76% 29.89 in 10.0 mi South 11.5 mph 26.5 mph N/A   Mostly Cloudy
6:53 PM 75.0 °F 69.1 °F 82% 29.89 in 10.0 mi South 12.7 mph - N/A   Scattered Clouds
7:25 PM 73.9 °F 69.1 °F 85% 29.90 in 10.0 mi South 10.4 mph - N/A   Mostly Cloudy
7:53 PM 73.9 °F 69.1 °F 85% 29.87 in 10.0 mi South 12.7 mph - N/A   Overcast
8:53 PM 73.9 °F 69.1 °F 85% 29.88 in 10.0 mi South 6.9 mph - N/A   Overcast
9:53 PM 75.0 °F 70.0 °F 84% 29.89 in 10.0 mi South 10.4 mph - N/A   Mostly Cloudy
10:53 PM 75.0 °F 70.0 °F 84% 29.88 in 10.0 mi South 13.8 mph - N/A   Clear
11:53 PM 75.9 °F 70.0 °F 82% 29.86 in 10.0 mi South 12.7 mph - N/A   Overcast